FENGYUN 1C DEB, 31861

Orbit data source: Space-Track

FENGYUN 1C DEB, 31861 is space debris in SSO originally from a launch on Mon, 10 May 1999 UTC launched from the Taiyaun Space Center, China (TSC). Fengyun 1C debris stems from the Chinese weather satellite Fengyun-1C, which was intentionally destroyed by a Chinese anti-satellite missile in 2007. This event dramatically increased the amount of space debris, with thousands of trackable fragments posing hazards to satellites and human spaceflight. The Fengyun 1C debris cloud has become a focal point in discussions about space sustainability and the need for international regulations to prevent the creation of new debris.

Loading next visibility...
Identifier
31861, 1999-025CKB
Orbit
SSO
Country
Flag of CNCN / PRC
Related business
Manufacturer
Unknown
Mission
Spacecraft
Bus & Motor
Unknown
Mass
Unknown
Launch date (UTC)
1999-05-10 (27 years ago)
Launch vehicle
Unknown
Launch site
Taiyaun Space Center, China (TSC)
Object type
Payload
Rocket body
Debris
Shape & HBR
Unknown shape, 0.1 m
Radar Cross Section
Small (<0.1 m²)

Expand to show TLE details & history
Last TLE update: 1 week ago

TLE from 1 week ago
0 FENGYUN 1C DEB
1 31861U 99025CKB 26159.45479170  .00001618  00000-0  18226-2 0  9991
2 31861 102.3375  32.6640 0487884 179.0276 181.1900 13.31016510691315
Epoch: 2026-06-08T10:54Z
TLE epoch observation values (Epoch: 2026-06-08T10:54:54.002Z)
Latitude
-0.00009°
Longitude
-27.9024°
Altitude
1,512.529 km
Speed
6.933 km/s
True Right ascension
02h 10m 39s
True Declination
0° 00' 00"
Sunlit
Object was in daylight at epoch
Visualization orbit readout
Latitude
Unknown
Longitude
Unknown
Altitude
Unknown
Speed
Unknown
Apparent Right ascension
Unknown
Apparent Declination
Unknown
Sunlit
N/A
Visualization observer readout
Local Sidereal Time
20:22:26
Azimuth
Unknown
Elevation
Unknown
Doppler factor
Unknown
Orbital elements
Apogee altitude
1,507.218 km
Perigee altitude
773.583 km
Semi-major axis
7,518.538 km
Eccentricity
0.04879
Inclination
102.3375°
RAAN
32.664°
Arg. of periapsis
179.0276°
True anomaly
181.08058°
Mean anomaly
181.19°
Eccentric anomaly
181.13465°
Mean motion
3.32922 °/min
Orbital period
108.13 mins
BSTAR
0.0018226
Loading maneuver chart data...
Computing Atmospheric mass density...

Documentation

Showing up to 5 results
|